Location: Jaite
(41.2884°N, 81.5737°W)
Time: 05:32:21
(UTC+00:00)

IRS-1D - Pass Details

Date: 15 November 2025
Orbit: 735 x 812 km, 98.8° (Epoch: 04 December)

Event Time Altitude Azimuth Distance (km) Brightness Sun altitude
Rises 10:34:23 0° 12° (NNE) 3,184 6.7 -18.9°
Reaches altitude 10° 10:36:41 10° 10° (N) 2,252 5.9 -18.5°
Maximum altitude 10:41:36 75° 286° (WNW) 764 3.3 -17.5°
Drops below altitude 10° 10:46:30 10° 202° (SSW) 2,237 5.8 -16.6°
Sets 10:48:46 0° 200° (SSW) 3,160 6.6 -16.2°
